sat.trackr.live / text

‹ back to catalog

STARLINK-1456

NORAD 45673 · 2020-035S

PAYLOAD ACTIVE UNKNOWN

§ Identity

Operator
Country
US
Launch date
2020-06-04
Launch site
AFETR
Launch vehicle
Mass (kg)
RCS (m²)

Purposes: comms

External: N2YO · Heavens-Above · Gunter

§ Orbital elements

Epoch: 2026-09-20T03:19:04.671264Z

Period
91.02 min
Inclination
53.0383°
Eccentricity
0.0006203
Mean motion
15.81983257 rev/d
Perigee alt
320.7 km
Apogee alt
329.0 km
Semi-major
6,703.0 km
B*
3.1212e-4
RAAN
169.6653°
Arg perigee
121.9203°
Mean anomaly
238.2423°
Rev number
34,950

§ Raw data

STARLINK-14561 45673U 20035S   26263.13824851  .00064712  00000+0  31212-3 0  99972 45673  53.0383 169.6653 0006203 121.9203 238.2423 15.81983257349508

JSON: /api/v1/satellites/45673 · /tle

For live sub-satellite position, see the globe view (requires WebGL).

§ Visibility from observer

Set your observer location to see the next 7 days of passes ≥ 10°. The values pass through the URL so the page stays shareable.

No JS? Fill the form by hand. The geolocation button needs JavaScript.